STARLINK-1628 (46169 NORAD) Tracking and Keplerian Element Data

This shows tracking and keplerian element data for the satellite.

Feedback or suggestion? Click here.




ElementValue
Catalog46169
NameSTARLINK-1628
Epoch Orbit185
Epoch Day336.91667824
Epoch Year2020
RAAN312.7679
Inclination53.0009
Eccentricity0.0001583
Argument of Perigee72.7557
Mean Anonmoly291.9792
Mean Motion15.05564673
Decay Rate0.00028922
L11 46169U 20057BE 20336.91667824 .00028922 00000-0 19968-2 0 9995
L22 46169 53.0009 312.7679 0001583 72.7557 291.9792 15.05564673 1855

Live tracking and technical data element details for STARLINK-1628 (NORAD 46169). STARLINK-1628 can be tracked NOW for your location showing map with azimuth and elevation plus other details from your city location.

Track the satellite on the map from your city or location and see movement details for azimuth, elevation, latitude, longitude, range, height, and movement on the map or in text.







IsCatalogInMostPopularTable: catalog: 46169, numindb: 27
Update: records affected: 1



GetName: 46169 STARLINK-1628

Hit Count: updated at: Wed, 02 Dec 2020 07:00:30 GMT